Hourly Data Report for October 06, 2017

All times are specified in Local Standard Time (LST). Add 1 hour to adjust for Daylight Saving Time where and when it is observed.

MOOSE CREEK WELLS
ONTARIO

45°15'04.000" N
74°57'46.000" W
84.50 m
6105397
71635
TCK

Download Data

Hourly Data (October 2017)
Hourly Data Report for October 6, 2017
Temp Definition
°C
Dew Point Temp Definition
°C
Rel Hum Definition
%
Wind Dir Definition
10's deg

Wind Spd Definition
km/h
Visibility Definition
km
Stn Press Definition
kPa
Hmdx Definition


Wind Chill Definition


Weather Definition


TIME
00:00 12.9 9.6 80 24 8   100.55     LegendNANA
01:00 11.9 9.3 84 26 7   100.58     LegendNANA
02:00 11.0 9.2 89 27 5   100.56     LegendNANA
03:00 11.2 9.4 88 26 6   100.56     LegendNANA
04:00 11.6 9.1 85 24 7   100.62     LegendNANA
05:00 11.7 9.2 85 24 9   100.67     LegendNANA
06:00 11.6 9.5 87 23 5   100.68     LegendNANA
07:00 12.0 10.0 88 24 9   100.73     LegendNANA
08:00 12.6 10.4 86 25 8   100.76     LegendNANA
09:00 13.5 10.3 81 24 10   100.80     LegendNANA
10:00 15.4 10.1 71 25 9   100.79     LegendNANA
11:00 16.6 10.0 65 24 11   100.76     LegendNANA
12:00 16.9 9.0 59 24 11   100.73     LegendNANA
13:00 17.8 10.0 60 24 11   100.68     LegendNANA
14:00 17.3 9.9 62 23 7   100.65     LegendNANA
15:00 17.8 10.5 63 19 10   100.62     LegendNANA
16:00 15.7 10.9 73 20 6   100.61     LegendNANA
17:00 15.5 11.3 76 20 7   100.62     LegendNANA
18:00 13.4 11.2 86 17 5   100.67     LegendNANA
19:00 10.7 10.1 96 17 3   100.68     LegendNANA
20:00 9.9 9.9 100 14 3   100.74     LegendNANA
21:00 9.6 9.5 100 13 2   100.74     LegendNANA
22:00 6.8 6.8 100 17 3   100.76     LegendNANA
23:00 6.9 6.9 100 16 4   100.76     LegendNANA

Notes on Data Quality.

Legend

  • E = Estimated
  • M = Missing
  • NA = Not Available
  • ‡ = Partner data that is not subject to review by the National Climate Archives
Date modified: